Weather History for Dumas, TX

Change the Weather History Date:

Tuesday, February 5, 2013

  Actual Average (KBGD) Record (KBGD)
Temperature  
Mean Temperature 42 °F 41 °F  
Max Temperature 59 °F 54 °F 79 °F (1963)
Min Temperature 26 °F 28 °F -5 °F (1989)
Degree Days  
Heating Degree Days 22 24  
Month to date heating degree days 123  
Since 1 July heating degree days 2475  
Cooling Degree Days 0 0  
Month to date cooling degree days 0  
Year to date cooling degree days 0  
Moisture  
Dew Point 19 °F    
Average Humidity 43    
Maximum Humidity 69    
Minimum Humidity 22    
Precipitation  
Precipitation 0.00 in 0.02 in 0.17 in (1998)
Month to date precipitation 0.12  
Year to date precipitation 0.71  
Snow  
Snow 0.00 in - 2.00 in (2002)
Month to date snowfall  
Since 1 July snowfall  
Snow Depth -    
Sea Level Pressure  
Sea Level Pressure 29.96 in    
Wind  
Wind Speed 11 mph (East)    
Max Wind Speed 26 mph    
Max Gust Speed 33 mph    
Visibility 10 miles    
Events      
T = Trace of Precipitation, MM = Missing Value Source: NWS Daily Summary

Daily Weather History Graph

Daily Weather History Graph

Search for Another Location

Airport:

Trip Planner

Search our weather history database for the weather conditions in past years. The results will help you decide how hot, cold, wet, or windy it might be!

Date:

Astronomy

Feb. 05, 2013 Rise Set
Actual Time 7:44 AM CST 6:19 PM CST
Civil Twilight 7:18 AM CST 6:46 PM CST
Nautical Twilight 6:47 AM CST 7:16 PM CST
Astronomical Twilight 6:17 AM CST 7:46 PM CST
Moon 3:25 AM CST (2/5) 1:43 PM CST (2/5)
Length of Visible Light 11h 28m
Length of Day
10h 35m
Waning Crescent, 26% of the Moon is Illuminated
Feb 5
Waning Crescent
Feb 10
New
Feb 17
First Quarter
Feb 25
Full
Mar 4
Last Quarter

Hourly Weather History & Observations

Time (CST) Temp. Windchill Dew Point Humidity Pressure Visibility Wind Dir Wind Speed Gust Speed Precip Events Conditions
12:15 AM 32.0 °F 23.6 °F 17.6 °F 55% 29.93 in 10.0 mi South 10.4 mph - N/A   Clear
12:35 AM 32.0 °F 23.6 °F 17.6 °F 55% 29.93 in 10.0 mi South 10.4 mph - N/A   Clear
12:55 AM 32.0 °F 23.6 °F 17.6 °F 55% 29.92 in 10.0 mi South 10.4 mph - N/A   Clear
1:15 AM 32.0 °F 23.6 °F 19.4 °F 60% 29.91 in 10.0 mi South 10.4 mph - N/A   Clear
1:35 AM 32.0 °F 23.6 °F 19.4 °F 60% 29.91 in 10.0 mi South 10.4 mph - N/A   Clear
1:55 AM 33.8 °F 25.3 °F 19.4 °F 56% 29.90 in 10.0 mi South 11.5 mph - N/A   Clear
2:15 AM 32.0 °F 24.2 °F 17.6 °F 55% 29.90 in 10.0 mi South 9.2 mph - N/A   Clear
2:35 AM 32.0 °F 23.6 °F 17.6 °F 55% 29.90 in 10.0 mi South 10.4 mph - N/A   Clear
2:55 AM 30.2 °F 24.3 °F 17.6 °F 60% 29.90 in 10.0 mi SSW 5.8 mph - N/A   Clear
3:15 AM 32.0 °F 28.7 °F 17.6 °F 55% 29.91 in 10.0 mi SW 3.5 mph - N/A   Clear
3:35 AM 32.0 °F 25.6 °F 17.6 °F 55% 29.91 in 10.0 mi SSW 6.9 mph - N/A   Clear
3:55 AM 30.2 °F 24.3 °F 17.6 °F 60% 29.91 in 10.0 mi WSW 5.8 mph - N/A   Clear
4:15 AM 32.0 °F - 17.6 °F 55% 29.90 in 10.0 mi Calm Calm - N/A   Clear
4:35 AM 32.0 °F 27.5 °F 17.6 °F 55% 29.90 in 10.0 mi SW 4.6 mph - N/A   Clear
4:55 AM 32.0 °F 24.2 °F 17.6 °F 55% 29.90 in 10.0 mi SSW 9.2 mph - N/A   Clear
5:15 AM 32.0 °F 24.2 °F 17.6 °F 55% 29.89 in 10.0 mi SSW 9.2 mph - N/A   Clear
5:35 AM 32.0 °F 24.2 °F 17.6 °F 55% 29.90 in 10.0 mi SW 9.2 mph - N/A   Clear
5:55 AM 30.2 °F 23.4 °F 17.6 °F 60% 29.90 in 10.0 mi SW 6.9 mph - N/A   Clear
6:15 AM 30.2 °F 22.6 °F 17.6 °F 60% 29.91 in 10.0 mi WNW 8.1 mph - N/A   Clear
6:35 AM 26.6 °F 18.2 °F 17.6 °F 69% 29.92 in 10.0 mi WNW 8.1 mph - N/A   Clear
6:55 AM 28.4 °F 19.1 °F 17.6 °F 64% 29.92 in 10.0 mi WNW 10.4 mph - N/A   Clear
7:15 AM 30.2 °F 21.3 °F 17.6 °F 60% 29.92 in 10.0 mi NW 10.4 mph - N/A   Clear
7:35 AM 30.2 °F 22.6 °F 15.8 °F 55% 29.93 in 10.0 mi NW 8.1 mph - N/A   Clear
7:55 AM 26.6 °F 17.5 °F 14.0 °F 59% 29.95 in 10.0 mi NNW 9.2 mph - N/A   Clear
8:15 AM 30.2 °F 21.3 °F 14.0 °F 51% 29.95 in 10.0 mi NNW 10.4 mph - N/A   Clear
8:35 AM 32.0 °F 23.6 °F 15.8 °F 51% 29.96 in 10.0 mi NNW 10.4 mph - N/A   Clear
8:55 AM 33.8 °F 25.3 °F 17.6 °F 52% 29.97 in 10.0 mi NNW 11.5 mph - N/A   Clear
9:15 AM 35.6 °F 26.2 °F 17.6 °F 48% 29.98 in 10.0 mi NNW 15.0 mph - N/A   Clear
9:35 AM 37.4 °F 28.2 °F 17.6 °F 45% 29.98 in 10.0 mi North 16.1 mph - N/A   Clear
10:15 AM 42.8 °F 34.8 °F 19.4 °F 39% 30.00 in 10.0 mi North 17.3 mph - N/A   Clear
10:35 AM 44.6 °F 36.6 °F 19.4 °F 37% 30.00 in 10.0 mi North 19.6 mph 23.0 mph N/A   Clear
10:55 AM 44.6 °F 37.4 °F 17.6 °F 34% 30.00 in 10.0 mi North 16.1 mph 24.2 mph N/A   Clear
11:15 AM 46.4 °F 40.1 °F 19.4 °F 34% 30.01 in 10.0 mi North 15.0 mph 21.9 mph N/A   Clear
11:35 AM 50.0 °F - 19.4 °F 30% 30.01 in 10.0 mi North 16.1 mph 21.9 mph N/A   Clear
11:55 AM 51.8 °F - 19.4 °F 28% 30.01 in 10.0 mi North 18.4 mph - N/A   Clear
12:15 PM 51.8 °F - 17.6 °F 26% 30.01 in 10.0 mi NNE 21.9 mph 26.5 mph N/A   Clear
12:35 PM 53.6 °F - 19.4 °F 26% 30.00 in 10.0 mi NE 26.5 mph 33.4 mph N/A   Clear
12:55 PM 55.4 °F - 19.4 °F 25% 30.00 in 10.0 mi NNE 24.2 mph 29.9 mph N/A   Scattered Clouds
1:15 PM 55.4 °F - 19.4 °F 25% 30.00 in 10.0 mi NNE 25.3 mph 31.1 mph N/A   Clear
1:35 PM 55.4 °F - 19.4 °F 25% 30.00 in 10.0 mi NE 19.6 mph 28.8 mph N/A   Clear
1:55 PM 57.2 °F - 19.4 °F 23% 29.99 in 10.0 mi NE 21.9 mph 28.8 mph N/A   Clear
2:15 PM 57.2 °F - 19.4 °F 23% 29.99 in 10.0 mi ENE 23.0 mph 28.8 mph N/A   Clear
2:35 PM 59.0 °F - 19.4 °F 22% 29.98 in 10.0 mi ENE 20.7 mph 28.8 mph N/A   Clear
2:55 PM 59.0 °F - 19.4 °F 22% 29.97 in 10.0 mi ENE 21.9 mph 25.3 mph N/A   Clear
3:15 PM 59.0 °F - 21.2 °F 23% 29.97 in 10.0 mi ENE 17.3 mph 24.2 mph N/A   Clear
3:35 PM 59.0 °F - 19.4 °F 22% 29.97 in 10.0 mi NE 17.3 mph 26.5 mph N/A   Clear
3:55 PM 59.0 °F - 19.4 °F 22% 29.96 in 10.0 mi ENE 18.4 mph 24.2 mph N/A   Clear
4:15 PM 59.0 °F - 19.4 °F 22% 29.97 in 10.0 mi ENE 17.3 mph 24.2 mph N/A   Clear
4:35 PM 59.0 °F - 19.4 °F 22% 29.97 in 10.0 mi East 15.0 mph 21.9 mph N/A   Clear
4:55 PM 57.2 °F - 19.4 °F 23% 29.98 in 10.0 mi East 15.0 mph 18.4 mph N/A   Clear
5:15 PM 55.4 °F - 21.2 °F 26% 29.97 in 10.0 mi East 12.7 mph - N/A   Clear
5:35 PM 55.4 °F - 21.2 °F 26% 29.97 in 10.0 mi East 12.7 mph - N/A   Clear
5:55 PM 53.6 °F - 21.2 °F 28% 29.98 in 10.0 mi East 9.2 mph - N/A   Clear
6:15 PM 51.8 °F - 21.2 °F 30% 29.98 in 10.0 mi East 8.1 mph - N/A   Clear
6:35 PM 46.4 °F 42.4 °F 21.2 °F 37% 29.98 in 10.0 mi ENE 8.1 mph - N/A   Clear
6:55 PM 46.4 °F 42.9 °F 21.2 °F 37% 29.99 in 10.0 mi ENE 6.9 mph - N/A   Clear
7:15 PM 44.6 °F 39.7 °F 21.2 °F 39% 30.00 in 10.0 mi East 9.2 mph - N/A   Clear
7:35 PM 46.4 °F 41.5 °F 23.0 °F 40% 30.00 in 10.0 mi East 10.4 mph - N/A   Clear
7:55 PM 44.6 °F 40.2 °F 21.2 °F 39% 30.00 in 10.0 mi East 8.1 mph - N/A   Clear
8:15 PM 44.6 °F 40.7 °F 21.2 °F 39% 30.00 in 10.0 mi ESE 6.9 mph - N/A   Clear
8:35 PM 44.6 °F 42.2 °F 21.2 °F 39% 30.01 in 10.0 mi East 4.6 mph - N/A   Clear
8:55 PM 41.0 °F 37.1 °F 21.2 °F 45% 30.01 in 10.0 mi ESE 5.8 mph - N/A   Clear
9:15 PM 42.8 °F 40.1 °F 21.2 °F 42% 30.01 in 10.0 mi SE 4.6 mph - N/A   Clear
9:35 PM 42.8 °F 41.1 °F 21.2 °F 42% 30.01 in 10.0 mi SE 3.5 mph - N/A   Clear
9:55 PM 41.0 °F 39.0 °F 21.2 °F 45% 30.02 in 10.0 mi SE 3.5 mph - N/A   Clear
10:15 PM 41.0 °F 36.4 °F 21.2 °F 45% 30.02 in 10.0 mi SSE 6.9 mph - N/A   Clear
10:35 PM 37.4 °F 32.8 °F 19.4 °F 48% 30.02 in 10.0 mi SSE 5.8 mph - N/A   Clear
10:55 PM 33.8 °F 27.0 °F 19.4 °F 56% 30.02 in 10.0 mi SSE 8.1 mph - N/A   Clear
11:15 PM 33.8 °F 27.7 °F 19.4 °F 56% 30.01 in 10.0 mi SE 6.9 mph - N/A   Clear
11:35 PM 32.0 °F 24.2 °F 17.6 °F 55% 30.01 in 10.0 mi SSE 9.2 mph - N/A   Clear
11:55 PM 32.0 °F 23.0 °F 19.4 °F 60% 30.00 in 10.0 mi South 11.5 mph - N/A   Clear